Regional Weather Roundup
Issued by NWS Upton, NY

Current Version | Previous Version | Graphics & Text | Print | Product List | Glossary Off
Versions: 1 2 3 4 5 6 7 8 9 10 11 12 13 14 15 16 17 18 19 20 21 22 23 24 25 26 27 28 29 30 31 32 33 34 35 36 37 38 39 40 41 42 43 44 45 46 47 48 49 50

000
ASUS41 KOKX 031718
RWROKX

REGIONAL WEATHER ROUNDUP
NATIONAL WEATHER SERVICE NEW YORK NY
100 PM EDT WED JUN 03 2015

NOTE: "FAIR" INDICATES FEW OR NO CLOUDS BELOW 12,000 FEET WITH NO
SIGNIFICANT WEATHER AND/OR OBSTRUCTIONS TO VISIBILITY.

NYZ071-072-176-178-NJZ106-104-031800-
NEW YORK CITY METRO AREA


CITY           SKY/WX    TMP DP  RH WIND       PRES   REMARKS
CENTRAL PARK   PTSUNNY   65  49  56 NE3       30.25S
LAGUARDIA APRT PTSUNNY   66  49  54 NE10      30.22S
KENNEDY INTL   PTSUNNY   64  51  62 S12       30.23S
NEWARK/LIBERTY PTSUNNY   66  51  59 NE3       30.22S
BRNX BOT. GARD   N/A     66  52  59 CALM      30.23F
TETERBORO      MOSUNNY   67  48  50 VRB7      30.21F
$$

NYZ177-179-078>081-031800-
LONG ISLAND NEW YORK

CITY           SKY/WX    TMP DP  RH WIND       PRES   REMARKS
FARMINGDALE    MOSUNNY   66  49  54 VRB6      30.22F
ISLIP          PTSUNNY   65  48  54 VRB6      30.21S
SHIRLEY        MOSUNNY   63  51  65 CALM      30.22F
WESTHAMPTON    MOSUNNY   59  49  69 SE9       30.24S
MONTAUK POINT    N/A     60  49  66 E7        30.24F
$$

NYZ052-065-067-031800-
HUDSON VALLEY

CITY           SKY/WX    TMP DP  RH WIND       PRES   REMARKS
WHITE PLAINS   MOSUNNY   65  50  58 CALM      30.21F
NEWBURGH       MOSUNNY   66  46  48 VRB6      30.23F
MONTGOMERY     SUNNY     67  48  50 NE6       30.21F
POUGHKEEPSIE   MOSUNNY   67  45  45 N7        30.21F
ALBANY         MOSUNNY   64  43  46 NE10      30.25F
$$

NJZ001-105-106-008-010-013-015-019>022-104-031800-
NEW JERSEY

CITY           SKY/WX    TMP DP  RH WIND       PRES   REMARKS
NEWARK/LIBERTY PTSUNNY   66  51  59 NE3       30.22S
TETERBORO      MOSUNNY   67  48  50 VRB7      30.21F
CALDWELL       MOSUNNY   66  48  52 CALM      30.22F
MORRISTOWN     PTSUNNY   72  57  60 CALM      30.22F
SOMERVILLE     CLOUDY    66  50  56 E6        30.20F
SUSSEX         SUNNY     65  48  54 CALM      30.23F
ANDOVER          N/A     64  51  62 VRB5      30.22F
TRENTON        CLOUDY    64  51  62 E10       30.22S
MILLVILLE        N/A     63  51  65 E15       30.20S
ATLANTIC CITY  CLOUDY    60  51  72 NE17      30.21S
WRIGHTSTOWN    CLOUDY    64  51  61 E10       30.19F
TOMS RIVER     CLOUDY   N/A N/A N/A E10       30.23S
BELMAR         CLOUDY    61  46  59 E9        30.23
$$

PAZ047>061-062-071-031800-
EASTERN PENNSYLVANIA

CITY           SKY/WX    TMP DP  RH WIND       PRES   REMARKS
PHILADELPHIA   CLOUDY    66  51  58 E14       30.22S
ALLENTOWN      CLOUDY    63  51  65 NE9       30.23S
SCRANTON       MOSUNNY   67  49  52 VRB7      30.21F
$$

CTZ002-004>006-009-010-012-RIZ004-006-007-MAZ004-011-015-031800-
SOUTHERN NEW ENGLAND
 IN CT

CITY           SKY/WX    TMP DP  RH WIND       PRES   REMARKS
BRADLEY INTL   PTSUNNY   66  44  45 VRB6      30.22F
HARTFORD       MOSUNNY   63  46  54 VRB6      30.22F
DANBURY        MOSUNNY   65  46  50 VRB6      30.22F
WTRBRY/OXFORD  MOSUNNY   64  43  45 NE12      30.23F
BRIDGEPORT     SUNNY    N/A N/A N/A MISG      30.22S
MERIDEN        MOSUNNY   66  44  45 NE10      30.22F
NEW HAVEN      MOSUNNY   60  52  74 S9        30.22S
CHESTER        FAIR      64  43  45 N7        30.22S
GROTON         SUNNY     57  49  74 SE10      30.22F
WILLIMANTIC    MOSUNNY   66  47  50 N8        30.22S

 IN RI

CITY           SKY/WX    TMP DP  RH WIND       PRES   REMARKS
PROVIDENCE     NOT AVBL
BLOCK ISLAND   SUNNY     55  48  76 E9        30.24F
WESTERLY       SUNNY     57  49  74 SE9       30.24S

 IN MA

CITY           SKY/WX    TMP DP  RH WIND       PRES   REMARKS
BOSTON         CLOUDY    51  46  83 E9        30.27S
WORCESTER      PTSUNNY   60  44  55 E6        30.23S
WESTFIELD      MOSUNNY   67  42  40 NE8       30.22F
PROVINCETOWN   MOSUNNY   54  46  76 NE8       30.27S
NANTUCKET      PTSUNNY   57  45  64 NE15      30.23F
$$

ANZ330-335-338-340-345-350-353-355-031800-
COASTAL MARINE OBSERVATIONS


STATION/POSITION TIME  SKY/WX   TEMP    WIND        PRES    VSBY  WAVE
                                AIR SEA DIR/SP/G                  HT/PER
                 (UTC)          (F)     (DEG/KT/KT) (MB)    (MI)  (FT/S)
NY HARB ENTRANCE 1650            55 57  110/  6/  8 1023.4          3/ 8
4S FIRE IS       1603               55                N/A           2/ 8
20S FIRE ISLAND  1650            53 55   60/ 10/ 12 1023.5          4/ 8
GREAT SOUTH BAY  1600            54 63  150/  8/ 10   N/A
23SW MTP         1650            53 57   70/ 12/ 14 1023.5          3/ 6
HUDSON CANYON    NOT AVBL
KINGS POINT      1600            61 55   20/  5/  7 1022.9
CENTRAL LI SOUND 1600            54 57  220/  6/  6   N/A
EASTERN LI SOUND 1600            52     130/  8/ 12   N/A
ROBBINS REEF     1600            60      30/  6/  7 1022.3
$$


>>>>>>>>>>>>>>>>>>>>>>>>>>>> KEY <<<<<<<<<<<<<<<<<<<<<<<<<<<
>                                                          <
>     SKY/WX - SKY CONDITION/PRESENT WEATHER               <
>     TMP    - TEMPERATURE IN FAHRENHEIT                   <
>     DP     - DEWPOINT IN FAHRENHEIT                      <
>     RH     - RELATIVE HUMIDITY IN PERCENT                <
>     WIND   - DIRECTION AND SPEED IN MPH                  <
>     PRES   - MEAN SEA LEVEL PRESSURE IN INCHES OF HG     <
>     WCI    - WIND CHILL INDEX                            <
>     VSB    - VISIBILITY IN MILES                         <
>     HX     - HEAT INDEX                                  <
>     TC     - TEMPERATURE IN CELSIUS                      <
>     VRB    - VARIABLE WIND DIRECTION                     <
>                                                          <
>>>>>>>>>>>>>>>>>>>>>>>>>>>> KEY <<<<<<<<<<<<<<<<<<<<<<<<<<<





USA.gov is the U.S. government's official web portal to all federal, state and local government web resources and services.